Regional Weather Roundup
Issued by NWS

Home | Current Version | Previous Version | Text Only | Print | Product List | Glossary On
Versions: 1 2 3 4 5 6 7 8 9 10 11 12 13 14 15 16 17 18 19 20 21 22 23 24 25 26 27 28 29 30 31 32 33 34 35 36 37 38 39 40 41 42 43 44 45 46 47 48 49 50
000
ASUS44 KBMX 311810
RWRAL

ALABAMA REGIONAL WEATHER ROUNDUP
NATIONAL WEATHER SERVICE BIRMINGHAM AL
100 PM CDT TUE MAY 31 2016

NOTE: "FAIR" INDICATES FEW OR NO CLOUDS BELOW 12,000 FEET
WITH NO SIGNIFICANT WEATHER AND/OR OBSTRUCTIONS TO VISIBILITY.

THE REMARK "TC" DENOTES TEMPERATURE IN DEGREES CELSIUS.

ALZ001>011-014-016>018-020-311900-
NORTH ALABAMA

CITY           SKY/WX    TMP DP  RH WIND       PRES   REMARKS
MUSCLE SHOALS  CLOUDY    85  64  49 W16       29.99S
6HR MIN TEMP:  68; 6HR MAX TEMP:  89;

HUNTSVILLE     MOSUNNY   91  56  30 VRB3      29.95F
6HR MIN TEMP:  71; 6HR MAX TEMP:  92;

DECATUR        SUNNY     90  60  36 VRB3      29.96F
6HR MIN TEMP:  69; 6HR MAX TEMP:  90;

HALEYVILLE     FAIR      82  66  58 NW10      30.01F
6HR MIN TEMP:  67; 6HR MAX TEMP:  86;

GADSDEN        PTSUNNY   89  63  41 VRB5      29.95F HX  90
6HR MIN TEMP:  68; 6HR MAX TEMP:  90;

$$

ALZ012-013-022-023-030>036-040>044-311900-
WEST CENTRAL ALABAMA

CITY           SKY/WX    TMP DP  RH WIND       PRES   REMARKS
TUSCALOOSA     PTSUNNY   90  64  42 W10       29.93F HX  91
6HR MIN TEMP:  69; 6HR MAX TEMP:  92;

$$

ALZ015-024>027-033>036-040>044-311900-
CENTRAL ALABAMA

CITY           SKY/WX    TMP DP  RH WIND       PRES   REMARKS
BIRMINGHAM     MOSUNNY   92  59  33 N10       29.97F HX  91
6HR MIN TEMP:  75; 6HR MAX TEMP:  93;

MONTGOMERY     PTSUNNY   93  62  35 VRB5      29.93F HX  93
6HR MIN TEMP:  73; 6HR MAX TEMP:  95;

SHELBY CO ARPT SUNNY     90  62  39 S3        29.95F HX  90
6HR MIN TEMP:  75; 6HR MAX TEMP:  91;

MAXWELL AFB    MOSUNNY   91  64  40 W6        29.92F HX  93
6HR MIN TEMP:  72; 6HR MAX TEMP:  94;

GREENVILLE     FAIR      95  57  27 CALM      29.94F HX  94
6HR MIN TEMP:  72; 6HR MAX TEMP:  95;

$$

ALZ019-021-028-029-037-038-045>048-311900-
EAST CENTRAL ALABAMA

CITY           SKY/WX    TMP DP  RH WIND       PRES   REMARKS
ANNISTON       PTSUNNY   90  60  36 VRB7      29.95F
6HR MIN TEMP:  68; 6HR MAX TEMP:  90;

ALEXANDER CITY SUNNY     90  69  50 SW3       29.96F HX  95
6HR MIN TEMP:  69; 6HR MAX TEMP:  90;

AUBURN         MOSUNNY  N/A N/A N/A VRB3      29.97F
$$

ALZ051>064-311900-
SOUTHWEST ALABAMA

CITY           SKY/WX    TMP DP  RH WIND       PRES   REMARKS
MOBILE         PTSUNNY   88  69  53 VRB3      29.95F HX  92
6HR MIN TEMP:  73; 6HR MAX TEMP:  90;

BROOKLEY FIELD MOSUNNY   87  72  60 SE8       29.96S HX  93
6HR MIN TEMP:  74; 6HR MAX TEMP:  87;

EVERGREEN      SUNNY     92  64  39 VRB5      29.94F HX  93
6HR MIN TEMP:  69; 6HR MAX TEMP:  94;

$$

ALZ049-050-065>069-311900-
SOUTHEAST ALABAMA

CITY           SKY/WX    TMP DP  RH WIND       PRES   REMARKS
DOTHAN         PTSUNNY   93  61  34 S8        29.97F HX  93
6HR MIN TEMP:  73; 6HR MAX TEMP:  94;

OZARK          MOSUNNY   92  64  39 VRB2      29.93F HX  93
6HR MIN TEMP:  71; 6HR MAX TEMP:  92;

TROY           MOSUNNY   94  64  37 N5        29.95S HX  95
6HR MIN TEMP:  70; 6HR MAX TEMP:  95;

EUFAULA        FAIR      94  63  35 VRB3      29.92F HX  95
6HR MIN TEMP:  71; 6HR MAX TEMP:  96;

$$



USA.gov is the U.S. government's official web portal to all federal, state and local government web resources and services.